QPF
0.00 0.00 0.00 0.00 0.00 0.00 0.00 0.00 0.00 0.00 0.00 0.00 0.00 0.00 0.00 0.00 0.00 0.00 0.00 0.00 0.00 0.00 0.00 0.00 0.00 0.00 0.00 0.00 0.00 0.00 0.00 0.00 0.00 0.00 0.00 0.00 0.00 0.00 0.00 0.00 0.00 0.00 0.00 0.00
0.00 0.00 0.00 0.00 0.00 0.00 0.00 0.00 0.00 0.00 0.00 0.00 0.00 0.00 0.00 0.00 0.00 0.00 0.00 0.00 0.00 0.00 0.00 0.00 0.00 0.00 0.00 0.00 0.00 0.00 0.00 0.00 0.00 0.00 0.00 0.00 0.00 0.00 0.00 0.00 0.00 0.00 0.00 0.00
0.00 0.00 0.00 0.00 0.00 0.00 0.00 0.00 0.00 0.00 0.00 0.00 0.00 0.00 0.00 0.00 0.00 0.00 0.00 0.00 0.00 0.00 0.00 0.00 0.00 0.00 0.00 0.00 0.00 0.00 0.00 0.00 0.00 0.00 0.00 0.00 0.00 0.00 0.00 0.00 0.00 0.00 0.00 0.00
0.00 0.00 0.00 0.00 0.00 0.00 0.00 0.00 0.00 0.00 0.00 0.00 0.00 0.00 0.00 0.00 0.00 0.00 0.00 0.00 0.00 0.00 0.00 0.00 0.00 0.00 0.00 0.00 0.00 0.00 0.00 0.00 0.00 0.00 0.00 0.00 0.00 0.00 0.00 0.00 0.00 0.00 0.00 0.00
0.00 0.00 0.00 0.00 0.00 0.00 0.00 0.00 0.00 0.00 0.00 0.00 0.00 0.00 0.00 0.00 0.00 0.00 0.00 0.00 0.00 0.00 0.00 0.00 0.00 0.00 0.00 0.00 0.00 0.00 0.00 0.00 0.00 0.00 0.00 0.00 0.00 0.00 0.00 0.00 0.00 0.00 0.00 0.00
0.00 0.00 0.00 0.00 0.00 0.00 0.00 0.00 0.00 0.00 0.00 0.00 0.00 0.00 0.00 0.00 0.00 0.00 0.00 0.00 0.00 0.00 0.00 0.00 0.00 0.00 0.00 0.00 0.00 0.00 0.00 0.00 0.00 0.00 0.00 0.00 0.00 0.00 0.00 0.00 0.00 0.00 0.00 0.00
0.00 0.00 0.00 0.00 0.00 0.00 0.00 0.00 0.00 0.00 0.00 0.00 0.00 0.00 0.00 0.00 0.00 0.00 0.00 0.00 0.00 0.00 0.00 0.00 0.00 0.00 0.00 0.00 0.00 0.00 0.00 0.00 0.00 0.00 0.00 0.00 0.00 0.00 0.00 0.00 0.00 0.00 0.00 0.00
0.00 0.00 0.00 0.00 0.00 0.00 0.00 0.00 0.00 0.00 0.00 0.00 0.00 0.00 0.00 0.00 0.00 0.00 0.00 0.00 0.00 0.00 0.00 0.00 0.00 0.00 0.00 0.00 0.00 0.00 0.00 0.00 0.00 0.00 0.00 0.00 0.00 0.00 0.00 0.00 0.00 0.00 0.00 0.00
0.00 0.00 0.00 0.00 0.00 0.00 0.00 0.00 0.00 0.00 0.00 0.00 0.00 0.00 0.00 0.00 0.00 0.00 0.00 0.00 0.00 0.00 0.00 0.00 0.00 0.00 0.00 0.00 0.00 0.00 0.00 0.00 0.00 0.00 0.00 0.00 0.00 0.00 0.00 0.00 0.00 0.00 0.00 0.00
0.00 0.00 0.00 0.00 0.00 0.00 0.00 0.00 0.00 0.00 0.00 0.00 0.00 0.00 0.00 0.00 0.00 0.00 0.00 0.00 0.00 0.00 0.00 0.00 0.00 0.00 0.00 0.00 0.00 0.00 0.00 0.00 0.00 0.00 0.00 0.00 0.00 0.00 0.00 0.00 0.00 0.00 0.00 0.00
0.00 0.00 0.00 0.00 0.00 0.00 0.00 0.00 0.00 0.00 0.00 0.00 0.00 0.00 0.00 0.00 0.00 0.00 0.00 0.00 0.00 0.00 0.00 0.00 0.00 0.00 0.00 0.00 0.00 0.00 0.00 0.00 0.00 0.00 0.00 0.00 0.00 0.00 0.00 0.00 0.00 0.00 0.00 0.00
0.00 0.00 0.00 0.00 0.00 0.00 0.00 0.00 0.00 0.00 0.00 0.00 0.00 0.00 0.00 0.00 0.00 0.00 0.00 0.00 0.00 0.00 0.00 0.00 0.00 0.00 0.00 0.00 0.00 0.00 0.00 0.00 0.00 0.00 0.00 0.00 0.00 0.00 0.00 0.00 0.00 0.00 0.00 0.00
0.00 0.00 0.00 0.00 0.00 0.00 0.00 0.00 0.00 0.00 0.00 0.00 0.00 0.00 0.00 0.00 0.00 0.00 0.00 0.00 0.00 0.00 0.00 0.00 0.00 0.00 0.00 0.00 0.00 0.00 0.00 0.00 0.00 0.00 0.00 0.00 0.00 0.00 0.00 0.00 0.00 0.00 0.00 0.00
0.00 0.00 0.00 0.00 0.00 0.00 0.00 0.00 0.00 0.00 0.00 0.00 0.00 0.00 0.00 0.00 0.00 0.00 0.00 0.00 0.00 0.00 0.00 0.00 0.00 0.00 0.00 0.00 0.00 0.00 0.00 0.00 0.00 0.00 0.00 0.00 0.00 0.00 0.00 0.00 0.00 0.00 0.00 0.00
0.00 0.00 0.00 0.00 0.00 0.00 0.00 0.00 0.00 0.00 0.00 0.00 0.00 0.00 0.00 0.00 0.00 0.00 0.00 0.00 0.00 0.00 0.00 0.00 0.00 0.00 0.00 0.00 0.00 0.00 0.00 0.00 0.00 0.00 0.00 0.00 0.00 0.00 0.00 0.00 0.00 0.00 0.00 0.00
0.00 0.00 0.00 0.00 0.00 0.00 0.00 0.00 0.00 0.00 0.00 0.00 0.00 0.00 0.00 0.00 0.00 0.00 0.00 0.00 0.00 0.00 0.00 0.00 0.00 0.00 0.00 0.00 0.00 0.00 0.00 0.00 0.00 0.00 0.00 0.00 0.00 0.00 0.00 0.00 0.00 0.00 0.00 0.00
0.00 0.00 0.00 0.00 0.00 0.00 0.00 0.00 0.00 0.00 0.00 0.00 0.00 0.00 0.00 0.00 0.00 0.00 0.00 0.00 0.00 0.00 0.00 0.00 0.00 0.00 0.00 0.00 0.00 0.00 0.00 0.00 0.00 0.00 0.00 0.00 0.00 0.00 0.00 0.00 0.00 0.00 0.00 0.00
0.00 0.00 0.00 0.00 0.00 0.00 0.00 0.00 0.00 0.00 0.00 0.00 0.00 0.00 0.00 0.00 0.00 0.00 0.00 0.00 0.00 0.00 0.00 0.00 0.00 0.00 0.00 0.00 0.00 0.00 0.00 0.00 0.00 0.00 0.00 0.00 0.00 0.00 0.00 0.00 0.00 0.00 0.00 0.00
0.00 0.00 0.00 0.00 0.00 0.00 0.00 0.00 0.00 0.00 0.00 0.00 0.00 0.00 0.00 0.00 0.00 0.00 0.00 0.00 0.00 0.00 0.00 0.00 0.00 0.00 0.00 0.00 0.00 0.00 0.00 0.00 0.00 0.00 0.00 0.00 0.00 0.00 0.00 0.00 0.00 0.00 0.00 0.00
0.00 0.00 0.00 0.00 0.00 0.00 0.00 0.00 0.00 0.00 0.00 0.00 0.00 0.00 0.00 0.00 0.00 0.00 0.00 0.00 0.00 0.00 0.00 0.00 0.00 0.00 0.00 0.00 0.00 0.00 0.00 0.00 0.00 0.00 0.00 0.00 0.00 0.00 0.00 0.00 0.00 0.00 0.00 0.00
0.00 0.00 0.00 0.00 0.00 0.00 0.00 0.00 0.00 0.00 0.00 0.00 0.00 0.00 0.00 0.00 0.00 0.00 0.00 0.00 0.00 0.00 0.00 0.00 0.00 0.00 0.00 0.00 0.00 0.00 0.00 0.00 0.00 0.00 0.00 0.00 0.00 0.00 0.00 0.00 0.00 0.00 0.00 0.00
0.00 0.00 0.00 0.00 0.00 0.00 0.00 0.00 0.00 0.00 0.00 0.00 0.00 0.00 0.00 0.00 0.00 0.00 0.00 0.00 0.00 0.00 0.00 0.00 0.00 0.00 0.00 0.00 0.00 0.00 0.00 0.00 0.00 0.00 0.00 0.00 0.00 0.00 0.00 0.00 0.00 0.00 0.00 0.00
0.00 0.00 0.00 0.00 0.00 0.00 0.00 0.00 0.00 0.00 0.00 0.00 0.00 0.00 0.00 0.00 0.00 0.00 0.00 0.00 0.00 0.00 0.00 0.00 0.00 0.00 0.00 0.00 0.00 0.00 0.00 0.00 0.00 0.00 0.00 0.00 0.00 0.00 0.00 0.00 0.00 0.00 0.00 0.00
0.00 0.00 0.00 0.00 0.00 0.00 0.00 0.00 0.00 0.00 0.00 0.00 0.00 0.00 0.00 0.00 0.00 0.00 0.00 0.00 0.00 0.00 0.00 0.00 0.00 0.00 0.00 0.00 0.00 0.00 0.00 0.00 0.00 0.00 0.00 0.00 0.00 0.00 0.00 0.00 0.00 0.00 0.00 0.00
0.00 0.00 0.00 0.00 0.00 0.00 0.00 0.00 0.00 0.00 0.00 0.00 0.00 0.00 0.00 0.00 0.00 0.00 0.00 0.00 0.00 0.00 0.00 0.00 0.00 0.00 0.00 0.00 0.00 0.00 0.00 0.00 0.00 0.00 0.00 0.00 0.00 0.00 0.00 0.00 0.00 0.00 0.00 0.00
0.00 0.00 0.00 0.00 0.00 0.00 0.00 0.00 0.00 0.00 0.00 0.00 0.00 0.00 0.00 0.00 0.00 0.00 0.00 0.00 0.00 0.00 0.00 0.00 0.00 0.00 0.00 0.00 0.00 0.00 0.00 0.00 0.00 0.00 0.00 0.00 0.00 0.00 0.00 0.00 0.00 0.00 0.00 0.00
MSLP
1018.80 1019.22 1019.64 1020.05 1020.43 1020.77 1021.06 1021.29 1021.49 1021.65 1021.80 1021.94 1022.08 1022.22 1022.37 1022.52 1022.65 1022.79 1022.92 1023.08 1023.29 1023.58 1023.98 1024.51 1025.17 1025.94 1026.80 1027.68 1028.54 1029.30 1029.92 1030.37 1030.65 1030.77 1030.77 1030.69 1030.59 1030.50 1030.45 1030.44 1030.46 1030.49 1030.50 1030.45
1019.27 1019.59 1019.89 1020.17 1020.42 1020.64 1020.83 1021.01 1021.18 1021.34 1021.49 1021.63 1021.76 1021.86 1021.94 1022.00 1022.03 1022.06 1022.11 1022.20 1022.38 1022.66 1023.09 1023.67 1024.39 1025.23 1026.15 1027.10 1028.02 1028.86 1029.55 1030.08 1030.44 1030.64 1030.71 1030.68 1030.60 1030.50 1030.41 1030.35 1030.31 1030.28 1030.25 1030.18
1019.66 1019.92 1020.13 1020.31 1020.47 1020.61 1020.75 1020.89 1021.04 1021.19 1021.32 1021.43 1021.48 1021.50 1021.46 1021.38 1021.28 1021.20 1021.18 1021.23 1021.41 1021.73 1022.22 1022.88 1023.68 1024.60 1025.58 1026.59 1027.56 1028.44 1029.20 1029.79 1030.23 1030.50 1030.63 1030.65 1030.60 1030.50 1030.38 1030.26 1030.15 1030.05 1029.96 1029.85
1019.97 1020.18 1020.34 1020.47 1020.59 1020.70 1020.83 1020.97 1021.11 1021.24 1021.32 1021.33 1021.27 1021.13 1020.92 1020.67 1020.43 1020.24 1020.14 1020.19 1020.40 1020.81 1021.40 1022.17 1023.07 1024.07 1025.12 1026.16 1027.16 1028.06 1028.84 1029.47 1029.96 1030.29 1030.48 1030.55 1030.53 1030.44 1030.29 1030.13 1029.96 1029.79 1029.63 1029.47
1020.20 1020.38 1020.52 1020.64 1020.76 1020.89 1021.04 1021.20 1021.35 1021.44 1021.44 1021.34 1021.12 1020.78 1020.36 1019.91 1019.50 1019.19 1019.04 1019.10 1019.39 1019.91 1020.64 1021.55 1022.57 1023.66 1024.76 1025.82 1026.81 1027.70 1028.46 1029.10 1029.60 1029.97 1030.21 1030.33 1030.35 1030.28 1030.13 1029.94 1029.72 1029.49 1029.26 1029.04
1020.33 1020.50 1020.65 1020.79 1020.95 1021.13 1021.33 1021.53 1021.68 1021.74 1021.65 1021.41 1020.99 1020.43 1019.79 1019.12 1018.54 1018.12 1017.94 1018.03 1018.41 1019.07 1019.96 1021.02 1022.16 1023.33 1024.47 1025.53 1026.49 1027.33 1028.05 1028.65 1029.15 1029.53 1029.81 1029.98 1030.04 1030.00 1029.88 1029.68 1029.44 1029.16 1028.89 1028.62
1020.40 1020.56 1020.71 1020.89 1021.10 1021.35 1021.62 1021.86 1022.02 1022.04 1021.87 1021.48 1020.87 1020.10 1019.23 1018.36 1017.63 1017.11 1016.90 1017.03 1017.52 1018.31 1019.36 1020.56 1021.82 1023.07 1024.23 1025.27 1026.18 1026.95 1027.60 1028.14 1028.60 1028.98 1029.28 1029.49 1029.61 1029.62 1029.54 1029.36 1029.12 1028.84 1028.53 1028.22
1020.43 1020.56 1020.72 1020.92 1021.19 1021.50 1021.82 1022.11 1022.28 1022.27 1022.02 1021.50 1020.73 1019.76 1018.70 1017.67 1016.80 1016.21 1015.98 1016.16 1016.73 1017.65 1018.83 1020.16 1021.52 1022.82 1024.00 1025.01 1025.85 1026.54 1027.10 1027.58 1027.99 1028.36 1028.67 1028.92 1029.09 1029.16 1029.13 1029.00 1028.79 1028.52 1028.20 1027.88
1020.43 1020.53 1020.68 1020.90 1021.18 1021.53 1021.89 1022.20 1022.38 1022.34 1022.02 1021.40 1020.51 1019.41 1018.21 1017.06 1016.10 1015.45 1015.22 1015.43 1016.07 1017.08 1018.36 1019.78 1021.20 1022.54 1023.72 1024.70 1025.48 1026.09 1026.58 1026.99 1027.36 1027.70 1028.02 1028.29 1028.51 1028.65 1028.68 1028.61 1028.44 1028.20 1027.91 1027.59
1020.43 1020.50 1020.62 1020.82 1021.10 1021.44 1021.80 1022.11 1022.26 1022.19 1021.82 1021.15 1020.18 1019.00 1017.73 1016.52 1015.52 1014.85 1014.62 1014.85 1015.53 1016.59 1017.92 1019.38 1020.84 1022.19 1023.36 1024.31 1025.05 1025.61 1026.05 1026.41 1026.74 1027.06 1027.38 1027.68 1027.94 1028.12 1028.21 1028.20 1028.08 1027.88 1027.61 1027.31
1020.46 1020.49 1020.57 1020.72 1020.95 1021.25 1021.56 1021.80 1021.91 1021.79 1021.39 1020.68 1019.70 1018.51 1017.23 1016.02 1015.03 1014.37 1014.14 1014.38 1015.07 1016.13 1017.46 1018.92 1020.37 1021.71 1022.87 1023.81 1024.54 1025.09 1025.51 1025.85 1026.17 1026.49 1026.80 1027.12 1027.39 1027.60 1027.72 1027.75 1027.67 1027.51 1027.27 1026.98
1020.54 1020.54 1020.56 1020.64 1020.78 1020.98 1021.18 1021.33 1021.34 1021.16 1020.71 1020.00 1019.03 1017.88 1016.67 1015.52 1014.57 1013.95 1013.74 1013.97 1014.63 1015.65 1016.93 1018.34 1019.76 1021.08 1022.23 1023.18 1023.92 1024.50 1024.95 1025.32 1025.65 1025.98 1026.30 1026.61 1026.88 1027.10 1027.23 1027.27 1027.21 1027.07 1026.85 1026.57
1020.69 1020.66 1020.62 1020.61 1020.63 1020.67 1020.72 1020.72 1020.60 1020.32 1019.83 1019.11 1018.19 1017.12 1016.00 1014.95 1014.09 1013.52 1013.33 1013.55 1014.16 1015.10 1016.29 1017.62 1018.98 1020.27 1021.42 1022.40 1023.20 1023.84 1024.36 1024.79 1025.17 1025.53 1025.86 1026.16 1026.42 1026.62 1026.73 1026.76 1026.69 1026.55 1026.33 1026.06
1020.89 1020.84 1020.75 1020.63 1020.50 1020.37 1020.22 1020.03 1019.75 1019.34 1018.78 1018.06 1017.18 1016.21 1015.21 1014.29 1013.54 1013.05 1012.89 1013.08 1013.62 1014.46 1015.54 1016.77 1018.05 1019.29 1020.44 1021.47 1022.35 1023.09 1023.71 1024.24 1024.70 1025.10 1025.45 1025.75 1025.99 1026.15 1026.23 1026.22 1026.13 1025.96 1025.73 1025.44
1021.11 1021.06 1020.92 1020.69 1020.41 1020.08 1019.72 1019.31 1018.84 1018.29 1017.64 1016.90 1016.08 1015.21 1014.35 1013.56 1012.93 1012.53 1012.39 1012.55 1013.02 1013.75 1014.70 1015.81 1017.00 1018.19 1019.35 1020.42 1021.39 1022.24 1022.99 1023.63 1024.19 1024.66 1025.04 1025.35 1025.56 1025.69 1025.72 1025.67 1025.55 1025.35 1025.10 1024.79
1021.30 1021.25 1021.06 1020.74 1020.32 1019.80 1019.22 1018.60 1017.93 1017.23 1016.49 1015.73 1014.95 1014.17 1013.44 1012.79 1012.29 1011.96 1011.86 1012.00 1012.38 1013.00 1013.83 1014.80 1015.89 1017.03 1018.17 1019.29 1020.34 1021.31 1022.18 1022.95 1023.60 1024.15 1024.58 1024.90 1025.11 1025.21 1025.21 1025.13 1024.98 1024.76 1024.48 1024.15
1021.39 1021.34 1021.12 1020.72 1020.16 1019.48 1018.72 1017.89 1017.05 1016.21 1015.39 1014.60 1013.85 1013.16 1012.55 1012.04 1011.65 1011.41 1011.34 1011.46 1011.77 1012.29 1012.98 1013.84 1014.81 1015.88 1017.00 1018.14 1019.26 1020.32 1021.30 1022.17 1022.93 1023.55 1024.04 1024.38 1024.60 1024.70 1024.70 1024.60 1024.44 1024.21 1023.92 1023.58
1021.27 1021.23 1020.97 1020.52 1019.87 1019.07 1018.16 1017.19 1016.21 1015.26 1014.37 1013.57 1012.86 1012.25 1011.75 1011.36 1011.07 1010.91 1010.88 1010.99 1011.24 1011.66 1012.24 1012.97 1013.85 1014.84 1015.91 1017.04 1018.18 1019.30 1020.36 1021.31 1022.14 1022.83 1023.37 1023.76 1024.01 1024.14 1024.15 1024.08 1023.93 1023.72 1023.45 1023.11
1020.89 1020.83 1020.56 1020.06 1019.36 1018.49 1017.49 1016.43 1015.37 1014.36 1013.45 1012.65 1011.99 1011.46 1011.05 1010.76 1010.58 1010.49 1010.49 1010.60 1010.82 1011.16 1011.64 1012.27 1013.04 1013.94 1014.95 1016.04 1017.17 1018.30 1019.39 1020.38 1021.26 1022.00 1022.59 1023.03 1023.32 1023.49 1023.55 1023.53 1023.43 1023.27 1023.04 1022.73
1020.20 1020.10 1019.81 1019.30 1018.58 1017.68 1016.66 1015.58 1014.50 1013.48 1012.58 1011.82 1011.21 1010.76 1010.44 1010.24 1010.14 1010.12 1010.17 1010.28 1010.48 1010.77 1011.18 1011.72 1012.40 1013.21 1014.14 1015.16 1016.25 1017.35 1018.42 1019.42 1020.31 1021.07 1021.69 1022.17 1022.51 1022.74 1022.87 1022.92 1022.89 1022.80 1022.63 1022.39
1019.18 1019.04 1018.71 1018.19 1017.48 1016.60 1015.62 1014.57 1013.53 1012.57 1011.72 1011.02 1010.48 1010.11 1009.87 1009.75 1009.73 1009.76 1009.85 1009.99 1010.18 1010.45 1010.81 1011.28 1011.88 1012.61 1013.46 1014.41 1015.42 1016.46 1017.48 1018.44 1019.31 1020.07 1020.70 1021.20 1021.60 1021.89 1022.09 1022.22 1022.28 1022.27 1022.18 1022.00
1017.88 1017.66 1017.29 1016.77 1016.08 1015.26 1014.35 1013.39 1012.44 1011.57 1010.81 1010.19 1009.74 1009.44 1009.27 1009.22 1009.25 1009.34 1009.47 1009.64 1009.84 1010.11 1010.44 1010.88 1011.43 1012.09 1012.86 1013.73 1014.66 1015.62 1016.56 1017.47 1018.29 1019.02 1019.65 1020.17 1020.60 1020.94 1021.21 1021.41 1021.56 1021.63 1021.63 1021.53
1016.37 1016.05 1015.62 1015.09 1014.44 1013.69 1012.88 1012.04 1011.22 1010.46 1009.82 1009.30 1008.93 1008.70 1008.59 1008.59 1008.67 1008.79 1008.96 1009.16 1009.38 1009.66 1010.00 1010.42 1010.94 1011.56 1012.27 1013.07 1013.92 1014.80 1015.67 1016.51 1017.28 1017.98 1018.59 1019.11 1019.56 1019.94 1020.26 1020.53 1020.74 1020.89 1020.96 1020.95
1014.75 1014.30 1013.81 1013.26 1012.65 1011.99 1011.29 1010.58 1009.90 1009.28 1008.75 1008.34 1008.04 1007.87 1007.81 1007.84 1007.94 1008.09 1008.28 1008.49 1008.75 1009.05 1009.41 1009.84 1010.35 1010.94 1011.62 1012.37 1013.16 1013.97 1014.78 1015.56 1016.29 1016.95 1017.54 1018.07 1018.53 1018.93 1019.29 1019.60 1019.87 1020.07 1020.21 1020.26
1013.10 1012.53 1011.97 1011.41 1010.84 1010.26 1009.68 1009.11 1008.57 1008.09 1007.68 1007.36 1007.13 1006.99 1006.95 1006.99 1007.09 1007.24 1007.43 1007.66 1007.94 1008.25 1008.63 1009.08 1009.59 1010.18 1010.84 1011.56 1012.32 1013.09 1013.87 1014.61 1015.31 1015.96 1016.54 1017.08 1017.55 1017.98 1018.36 1018.70 1019.00 1019.24 1019.41 1019.52
1011.53 1010.85 1010.23 1009.66 1009.14 1008.65 1008.18 1007.75 1007.35 1006.99 1006.68 1006.44 1006.26 1006.14 1006.10 1006.12 1006.19 1006.32 1006.49 1006.72 1006.98 1007.31 1007.69 1008.14 1008.67 1009.26 1009.92 1010.62 1011.37 1012.13 1012.89 1013.63 1014.34 1015.00 1015.60 1016.16 1016.66 1017.11 1017.52 1017.88 1018.19 1018.45 1018.66 1018.80
Thickness
5729 5717 5705 5701 5702 5699 5699 5694 5691 5690 5680 5671 5667 5670 5675 5664 5654 5649 5646 5641 5636 5631 5624 5614 5603 5589 5576 5563 5550 5538 5527 5516 5505 5493 5481 5470 5459 5447 5435 5420 5404 5387 5367 5347
5715 5706 5704 5706 5702 5698 5695 5690 5692 5686 5678 5672 5670 5673 5682 5674 5661 5656 5651 5647 5641 5635 5627 5617 5604 5589 5576 5562 5548 5535 5523 5510 5498 5486 5474 5461 5450 5438 5425 5410 5393 5374 5353 5333
5710 5700 5704 5701 5699 5695 5696 5692 5685 5679 5684 5678 5666 5674 5682 5681 5670 5660 5655 5652 5648 5640 5631 5620 5605 5590 5575 5561 5547 5533 5518 5504 5491 5479 5465 5453 5441 5428 5414 5398 5380 5360 5341 5321
5706 5701 5699 5695 5696 5692 5689 5686 5682 5677 5667 5673 5672 5661 5671 5673 5665 5662 5657 5652 5649 5644 5636 5624 5609 5591 5575 5560 5544 5528 5512 5498 5485 5471 5458 5444 5430 5416 5402 5386 5369 5350 5330 5310
5701 5697 5693 5691 5694 5688 5687 5683 5678 5674 5669 5668 5673 5661 5677 5677 5665 5666 5663 5658 5653 5646 5637 5626 5611 5593 5575 5557 5539 5523 5507 5492 5479 5465 5450 5436 5421 5407 5393 5377 5359 5341 5321 5301
5696 5698 5696 5694 5692 5689 5686 5681 5676 5671 5665 5661 5679 5668 5675 5675 5684 5684 5675 5667 5658 5649 5638 5626 5610 5591 5571 5552 5534 5518 5502 5487 5473 5458 5444 5429 5414 5399 5383 5367 5349 5331 5313 5295
5687 5691 5692 5690 5685 5684 5678 5671 5665 5661 5651 5669 5680 5669 5675 5696 5696 5690 5680 5670 5661 5650 5636 5621 5604 5586 5567 5547 5530 5513 5498 5483 5469 5454 5438 5423 5408 5392 5376 5359 5341 5324 5306 5289
5689 5684 5686 5686 5685 5680 5685 5675 5661 5656 5660 5671 5670 5664 5688 5702 5697 5690 5681 5671 5659 5647 5633 5619 5602 5583 5564 5545 5528 5511 5495 5480 5466 5450 5434 5418 5403 5386 5370 5353 5335 5318 5300 5284
5686 5681 5681 5682 5682 5676 5678 5677 5673 5660 5667 5657 5667 5686 5698 5694 5687 5679 5670 5661 5652 5643 5631 5615 5599 5581 5563 5545 5527 5511 5494 5478 5463 5447 5430 5414 5398 5381 5365 5348 5331 5314 5297 5282
5679 5675 5676 5672 5671 5670 5668 5669 5662 5653 5647 5642 5665 5679 5679 5678 5679 5676 5667 5660 5653 5642 5629 5613 5597 5580 5563 5545 5527 5509 5493 5477 5461 5444 5427 5411 5394 5378 5362 5345 5328 5312 5295 5279
5673 5666 5668 5664 5662 5666 5660 5661 5659 5658 5656 5637 5640 5665 5705 5696 5694 5686 5677 5669 5659 5644 5629 5612 5596 5579 5561 5543 5525 5507 5491 5475 5458 5442 5425 5408 5391 5375 5359 5342 5326 5310 5294 5278
5668 5660 5661 5670 5674 5670 5673 5670 5662 5646 5649 5646 5636 5660 5708 5703 5698 5689 5680 5673 5662 5646 5629 5611 5594 5576 5558 5540 5523 5506 5490 5474 5457 5441 5423 5406 5389 5373 5357 5341 5325 5309 5293 5278
5660 5650 5649 5656 5656 5656 5657 5663 5664 5658 5647 5638 5634 5659 5701 5698 5692 5685 5676 5668 5656 5642 5625 5608 5591 5574 5557 5540 5523 5506 5490 5474 5457 5440 5422 5404 5388 5372 5356 5340 5324 5308 5293 5278
5649 5644 5644 5650 5653 5657 5651 5656 5656 5647 5634 5635 5647 5667 5687 5684 5680 5679 5673 5664 5653 5638 5622 5606 5590 5574 5558 5541 5524 5508 5491 5475 5457 5439 5421 5403 5387 5371 5355 5339 5323 5308 5293 5279
5638 5635 5647 5653 5659 5657 5655 5657 5652 5646 5650 5647 5663 5671 5685 5685 5683 5680 5675 5663 5651 5636 5620 5606 5591 5575 5558 5541 5525 5509 5493 5476 5458 5439 5421 5404 5387 5370 5354 5338 5322 5308 5294 5281
5630 5628 5638 5643 5652 5650 5645 5654 5654 5651 5653 5656 5660 5669 5688 5681 5680 5675 5668 5659 5647 5636 5622 5607 5592 5577 5561 5544 5528 5511 5494 5476 5458 5439 5421 5404 5386 5369 5353 5338 5323 5310 5296 5283
5624 5621 5622 5624 5644 5634 5634 5661 5658 5654 5662 5657 5651 5666 5677 5674 5671 5667 5661 5655 5646 5637 5625 5610 5595 5580 5565 5548 5531 5512 5495 5476 5457 5439 5422 5404 5386 5369 5353 5339 5325 5311 5299 5286
5623 5619 5614 5613 5624 5611 5659 5676 5672 5663 5665 5662 5662 5666 5667 5666 5665 5661 5656 5650 5645 5638 5626 5612 5597 5581 5566 5549 5531 5512 5494 5476 5457 5439 5422 5405 5387 5371 5355 5339 5326 5313 5301 5290
5616 5614 5606 5600 5599 5618 5654 5667 5661 5653 5654 5667 5661 5662 5661 5660 5651 5653 5657 5652 5646 5639 5628 5614 5599 5582 5564 5548 5531 5512 5493 5476 5457 5441 5424 5407 5389 5373 5356 5341 5328 5316 5305 5293
5600 5600 5595 5592 5586 5599 5648 5657 5656 5647 5640 5669 5663 5657 5654 5646 5631 5645 5656 5651 5643 5635 5623 5609 5594 5579 5562 5546 5529 5510 5494 5477 5461 5445 5428 5411 5393 5376 5360 5346 5333 5320 5308 5296
5583 5583 5582 5583 5583 5609 5650 5642 5637 5627 5646 5672 5664 5656 5649 5635 5638 5645 5645 5639 5631 5623 5613 5601 5588 5575 5561 5545 5528 5511 5495 5481 5466 5449 5432 5414 5398 5381 5365 5351 5337 5324 5311 5299
5594 5582 5583 5585 5579 5605 5645 5630 5631 5646 5661 5663 5659 5653 5645 5641 5641 5638 5633 5626 5618 5610 5603 5592 5580 5569 5556 5542 5527 5512 5499 5486 5468 5451 5434 5417 5401 5385 5370 5354 5340 5326 5313 5300
5611 5614 5611 5608 5623 5647 5640 5642 5647 5647 5644 5648 5646 5644 5638 5632 5630 5629 5625 5619 5611 5602 5593 5585 5572 5561 5551 5540 5528 5515 5502 5486 5469 5452 5435 5419 5404 5388 5373 5358 5343 5329 5316 5302
5613 5620 5612 5613 5627 5637 5636 5635 5638 5636 5634 5637 5636 5633 5628 5622 5622 5620 5618 5612 5605 5596 5587 5577 5565 5556 5548 5538 5527 5515 5502 5486 5469 5452 5436 5421 5406 5391 5376 5362 5347 5333 5318 5305
5611 5601 5595 5602 5619 5622 5628 5631 5632 5631 5631 5630 5629 5626 5620 5615 5614 5613 5610 5607 5600 5590 5580 5571 5563 5556 5547 5536 5524 5512 5499 5485 5468 5452 5437 5423 5409 5394 5379 5365 5351 5337 5324 5310
5603 5594 5589 5600 5613 5604 5613 5625 5623 5617 5617 5618 5616 5616 5615 5608 5606 5606 5603 5601 5593 5585 5574 5565 5558 5551 5543 5533 5521 5509 5497 5483 5469 5453 5439 5425 5411 5396 5382 5367 5354 5342 5329 5317